Location: *
(10.4782°N, 67.2163°W)
Time: 20:48:46
(UTC+00:00)

Cosmos 1975 Rocket - Pass Details

Date: 23 May 2024
Orbit: 601 x 629 km, 82.5° (Epoch: 23 June)

Event Time Altitude Azimuth Distance (km) Brightness Sun altitude
Exits shadow 08:40:33 36° 294° (WNW) 962 3.7 -20.1°
Drops below altitude 10° 08:43:57 10° 343° (NNW) 1,938 5.7 -19.3°
Sets 08:46:16 0° 352° (N) 2,839 6.7 -18.8°
